Weather History for Zapata, TX

Change the Weather History Date:

Wednesday, February 13, 2013

  Actual Average (KLRD) Record (KLRD)
Temperature  
Mean Temperature 59 °F 61 °F  
Max Temperature 69 °F 72 °F 93 °F (1974)
Min Temperature 49 °F 50 °F 18 °F (1905)
Degree Days  
Heating Degree Days 6 6  
Month to date heating degree days 91  
Since 1 July heating degree days 770  
Cooling Degree Days 0 2  
Month to date cooling degree days 22  
Year to date cooling degree days 50  
Growing Degree Days 9 (Base 50)    
Moisture  
Dew Point 25 °F    
Average Humidity 28    
Maximum Humidity 59    
Minimum Humidity 12    
Precipitation  
Precipitation 0.00 in 0.03 in 0.58 in (1959)
Month to date precipitation 0.42  
Year to date precipitation 1.32  
Sea Level Pressure  
Sea Level Pressure 30.07 in    
Wind  
Wind Speed 8 mph (North)    
Max Wind Speed 13 mph    
Max Gust Speed 18 mph    
Visibility 10 miles    
Events      
T = Trace of Precipitation, MM = Missing Value Source: NWS Daily Summary

Daily Weather History Graph

Daily Weather History Graph

Search for Another Location

Airport:

Trip Planner

Search our weather history database for the weather conditions in past years. The results will help you decide how hot, cold, wet, or windy it might be!

Date:

Astronomy

Feb. 13, 2013 Rise Set
Actual Time 7:14 AM CST 6:28 PM CST
Civil Twilight 6:50 AM CST 6:51 PM CST
Nautical Twilight 6:23 AM CST 7:19 PM CST
Astronomical Twilight 5:56 AM CST 7:46 PM CST
Moon 9:10 AM CST (2/13) 10:03 PM CST (2/13)
Length of Visible Light 12h 00m
Length of Day
11h 13m
Waxing Crescent, 14% of the Moon is Illuminated
Feb 13
Waxing Crescent
Feb 17
First Quarter
Feb 25
Full
Mar 4
Last Quarter
Mar 11
New

Hourly Weather History & Observations

Time (CST) Temp. Dew Point Humidity Pressure Visibility Wind Dir Wind Speed Gust Speed Precip Events Conditions
12:15 AM 64.6 °F 49.1 °F 57% 30.00 in 10.0 mi WNW 8.1 mph - N/A   Mostly Cloudy
12:35 AM 64.6 °F 49.5 °F 58% 30.00 in 10.0 mi NW 6.9 mph - N/A   Mostly Cloudy
12:55 AM 64.4 °F 49.6 °F 59% 30.01 in 10.0 mi NW 9.2 mph - N/A   Scattered Clouds
1:15 AM 64.0 °F 48.7 °F 57% 30.02 in 10.0 mi NW 9.2 mph - N/A   Scattered Clouds
1:35 AM 64.4 °F 43.0 °F 46% 30.02 in 10.0 mi NNW 11.5 mph - N/A   Scattered Clouds
1:55 AM 64.2 °F 38.1 °F 38% 30.02 in 10.0 mi North 10.4 mph - N/A   Scattered Clouds
2:15 AM 64.0 °F 34.2 °F 33% 30.02 in 10.0 mi North 11.5 mph - N/A   Scattered Clouds
2:35 AM 63.5 °F 31.6 °F 30% 30.03 in 10.0 mi NNW 9.2 mph - N/A   Scattered Clouds
2:55 AM 63.0 °F 29.1 °F 28% 30.04 in 10.0 mi NNW 8.1 mph - N/A   Clear
3:15 AM 63.0 °F 27.7 °F 26% 30.04 in 10.0 mi NNW 8.1 mph - N/A   Mostly Cloudy
3:35 AM 62.8 °F 25.7 °F 24% 30.04 in 10.0 mi North 10.4 mph - N/A   Overcast
3:55 AM 62.6 °F 25.7 °F 25% 30.04 in 10.0 mi North 10.4 mph 18.4 mph N/A   Overcast
4:15 AM 62.1 °F 25.3 °F 25% 30.05 in 10.0 mi North 9.2 mph 16.1 mph N/A   Mostly Cloudy
4:35 AM 61.7 °F 24.8 °F 24% 30.04 in 10.0 mi North 9.2 mph - N/A   Mostly Cloudy
4:55 AM 61.3 °F 25.3 °F 25% 30.05 in 10.0 mi North 11.5 mph 18.4 mph N/A   Overcast
5:15 AM 60.8 °F 26.6 °F 27% 30.07 in 10.0 mi North 11.5 mph 18.4 mph N/A   Overcast
5:35 AM 59.9 °F 27.7 °F 29% 30.07 in 10.0 mi North 11.5 mph 16.1 mph N/A   Mostly Cloudy
5:55 AM 59.0 °F 29.1 °F 32% 30.09 in 10.0 mi North 8.1 mph - N/A   Mostly Cloudy
6:15 AM 58.5 °F 30.7 °F 35% 30.10 in 10.0 mi North 6.9 mph - N/A   Overcast
6:35 AM 57.4 °F 32.0 °F 38% 30.11 in 10.0 mi North 12.7 mph - N/A   Scattered Clouds
6:55 AM 56.7 °F 32.5 °F 40% 30.12 in 10.0 mi North 6.9 mph - N/A   Clear
7:15 AM 56.1 °F 30.9 °F 38% 30.12 in 10.0 mi North 12.7 mph - N/A   Mostly Cloudy
7:35 AM 56.3 °F 30.9 °F 38% 30.14 in 10.0 mi North 5.8 mph - N/A   Overcast
7:55 AM 56.5 °F 30.9 °F 38% 30.15 in 10.0 mi North 8.1 mph - N/A   Overcast
8:15 AM 56.8 °F 27.9 °F 33% 30.15 in 10.0 mi North 8.1 mph - N/A   Overcast
8:35 AM 56.7 °F 26.8 °F 32% 30.15 in 10.0 mi North 6.9 mph - N/A   Overcast
8:55 AM 56.3 °F 25.5 °F 31% 30.16 in 10.0 mi North 10.4 mph 16.1 mph N/A   Overcast
9:15 AM 56.3 °F 24.8 °F 30% 30.17 in 10.0 mi North 12.7 mph 18.4 mph N/A   Overcast
9:35 AM 56.8 °F 25.3 °F 30% 30.18 in 10.0 mi North 12.7 mph 17.3 mph N/A   Overcast
9:55 AM 57.6 °F 25.7 °F 29% 30.18 in 10.0 mi NNW 9.2 mph - N/A   Overcast
10:15 AM 58.3 °F 25.5 °F 28% 30.19 in 10.0 mi North 9.2 mph - N/A   Overcast
10:35 AM 58.3 °F 25.5 °F 28% 30.18 in 10.0 mi North 6.9 mph - N/A   Overcast
10:55 AM 59.9 °F 25.7 °F 27% 30.18 in 10.0 mi NNW 6.9 mph - N/A   Overcast
11:15 AM 60.1 °F 25.7 °F 27% 30.17 in 10.0 mi NNW 5.8 mph - N/A   Scattered Clouds
11:35 AM 61.3 °F 24.8 °F 25% 30.17 in 10.0 mi NNE 5.8 mph - N/A   Clear
11:55 AM 62.6 °F 24.8 °F 24% 30.15 in 10.0 mi North 3.5 mph - N/A   Clear
12:15 PM 63.5 °F 24.4 °F 23% 30.15 in 10.0 mi NNW 3.5 mph - N/A   Clear
12:35 PM 64.6 °F 23.0 °F 21% 30.13 in 10.0 mi North 4.6 mph - N/A   Clear
12:55 PM 65.5 °F 22.3 °F 19% 30.12 in 10.0 mi North 8.1 mph - N/A   Clear
1:15 PM 66.4 °F 21.9 °F 18% 30.10 in 10.0 mi NNE 8.1 mph - N/A   Clear
1:35 PM 66.6 °F 21.2 °F 18% 30.09 in 10.0 mi NW 9.2 mph - N/A   Clear
1:55 PM 67.1 °F 19.2 °F 16% 30.07 in 10.0 mi NNE 5.8 mph - N/A   Clear
2:15 PM 67.8 °F 20.1 °F 16% 30.06 in 10.0 mi Calm Calm - N/A   Clear
2:35 PM 68.0 °F 18.0 °F 15% 30.04 in 10.0 mi North 8.1 mph - N/A   Clear
2:55 PM 69.1 °F 16.2 °F 13% 30.04 in 10.0 mi NNE 9.2 mph - N/A   Clear
3:15 PM 68.4 °F 15.1 °F 13% 30.03 in 10.0 mi North 8.1 mph - N/A   Clear
3:35 PM 68.9 °F 14.0 °F 12% 30.02 in 10.0 mi North 3.5 mph - N/A   Clear
3:55 PM 68.2 °F 13.1 °F 12% 30.02 in 10.0 mi Calm Calm - N/A   Clear
4:15 PM 69.3 °F 13.5 °F 12% 30.01 in 10.0 mi NE 5.8 mph - N/A   Clear
4:35 PM 69.1 °F 13.1 °F 12% 30.01 in 10.0 mi NNE 6.9 mph - N/A   Clear
4:55 PM 68.9 °F 13.8 °F 12% 30.01 in 10.0 mi North 11.5 mph - N/A   Clear
5:15 PM 68.9 °F 14.2 °F 12% 30.01 in 10.0 mi Calm Calm - N/A   Clear
5:35 PM 68.2 °F 14.4 °F 13% 30.01 in 10.0 mi Calm Calm - N/A   Clear
5:55 PM 67.5 °F 15.1 °F 13% 30.01 in 10.0 mi North 4.6 mph - N/A   Clear
6:15 PM 66.6 °F 16.0 °F 14% 30.01 in 10.0 mi Calm Calm - N/A   Clear
6:35 PM 64.9 °F 17.6 °F 16% 30.02 in 10.0 mi NE 3.5 mph - N/A   Clear
6:55 PM 64.0 °F 18.0 °F 17% 30.02 in 10.0 mi NE 3.5 mph - N/A   Clear
7:15 PM 62.8 °F 18.3 °F 18% 30.02 in 10.0 mi NE 4.6 mph - N/A   Clear
7:35 PM 60.8 °F 19.4 °F 20% 30.02 in 10.0 mi NE 4.6 mph - N/A   Clear
7:55 PM 55.8 °F 23.5 °F 29% 30.03 in 10.0 mi NE 3.5 mph - N/A   Clear
8:15 PM 58.3 °F 21.2 °F 24% 30.04 in 10.0 mi NE 5.8 mph - N/A   Clear
8:35 PM 57.6 °F 21.9 °F 25% 30.04 in 10.0 mi East 3.5 mph - N/A   Clear
8:55 PM 55.4 °F 22.5 °F 28% 30.06 in 10.0 mi Calm Calm - N/A   Clear
9:15 PM 52.0 °F 22.1 °F 31% 30.07 in 10.0 mi Calm Calm - N/A   Clear
9:35 PM 52.9 °F 23.0 °F 31% 30.07 in 10.0 mi Calm Calm - N/A   Clear
9:55 PM 54.0 °F 23.0 °F 30% 30.08 in 10.0 mi Calm Calm - N/A   Clear
10:15 PM 52.0 °F 24.1 °F 34% 30.08 in 10.0 mi Calm Calm - N/A   Clear
10:35 PM 51.3 °F 24.4 °F 35% 30.08 in 10.0 mi East 3.5 mph - N/A   Clear
10:55 PM 49.1 °F 25.0 °F 39% 30.09 in 10.0 mi Calm Calm - N/A   Clear
11:15 PM 50.0 °F 25.0 °F 38% 30.09 in 10.0 mi East 4.6 mph - N/A   Clear
11:35 PM 50.4 °F 25.7 °F 38% 30.09 in 10.0 mi East 3.5 mph - N/A   Clear
11:55 PM 50.0 °F 25.5 °F 39% 30.08 in 10.0 mi East 3.5 mph - N/A   Clear